Time,TemperatureF,DewpointF,PressureIn,WindDirection,WindDirectionDegrees,WindSpeedMPH,WindSpeedGustMPH,Humidity,HourlyPrecipIn,Conditions,Clouds,dailyrainin,SolarRadiationWatts/m^2,SoftwareType,DateUTC
2013-06-20 00:00:00,74.8,74.5,30.06,SE,141,0.0,0.0,99,0.00,,,2.38,0.0,meteohub,2013-06-20 04:00:00,
2013-06-20 00:01:00,74.8,74.5,30.06,SE,145,0.0,0.0,99,0.00,,,2.38,0.0,meteohub,2013-06-20 04:01:00,
2013-06-20 00:02:00,74.8,74.5,30.06,SSE,155,0.0,0.0,99,0.00,,,2.38,0.0,meteohub,2013-06-20 04:02:00,
2013-06-20 00:03:00,74.8,74.5,30.06,South,174,6.0,0.0,99,0.00,,,2.38,0.0,meteohub,2013-06-20 04:03:00,
2013-06-20 00:08:00,74.8,74.5,30.06,South,181,0.0,6.0,99,0.00,,,0.00,0.0,meteohub,2013-06-20 04:08:00,
2013-06-20 00:13:00,75.0,74.7,30.06,South,179,0.0,6.0,99,0.00,,,0.00,0.0,meteohub,2013-06-20 04:13:00,
2013-06-20 00:18:00,75.0,74.7,30.06,South,178,0.0,6.0,99,0.00,,,0.00,0.0,meteohub,2013-06-20 04:18:00,
2013-06-20 00:23:00,75.4,75.0,30.06,South,179,0.0,5.0,99,0.00,,,0.00,0.0,meteohub,2013-06-20 04:23:00,
2013-06-20 00:28:00,75.4,74.8,30.05,South,178,0.0,0.0,98,0.00,,,0.00,0.0,meteohub,2013-06-20 04:28:00,
2013-06-20 00:33:00,75.4,74.8,30.05,South,179,0.0,0.0,98,0.00,,,0.00,0.0,meteohub,2013-06-20 04:33:00,
2013-06-20 00:38:00,75.4,74.8,30.05,South,178,0.0,0.0,98,0.00,,,0.00,0.0,meteohub,2013-06-20 04:38:00,
2013-06-20 00:43:00,75.4,74.8,30.05,South,178,0.0,0.0,98,0.00,,,0.00,0.0,meteohub,2013-06-20 04:43:00,
2013-06-20 00:48:00,75.4,74.8,30.05,South,178,0.0,0.0,98,0.00,,,0.00,0.0,meteohub,2013-06-20 04:48:00,
2013-06-20 00:53:00,75.4,74.8,30.05,South,178,0.0,0.0,98,0.00,,,0.00,0.0,meteohub,2013-06-20 04:53:00,
2013-06-20 00:58:00,75.4,74.8,30.04,South,179,0.0,0.0,98,0.00,,,0.00,0.0,meteohub,2013-06-20 04:58:00,
2013-06-20 01:03:00,75.4,74.8,30.04,South,179,0.0,0.0,98,0.00,,,0.00,0.0,meteohub,2013-06-20 05:03:00,
2013-06-20 01:08:00,75.4,74.8,30.04,South,178,0.0,0.0,98,0.00,,,0.00,0.0,meteohub,2013-06-20 05:08:00,
2013-06-20 01:13:00,75.4,74.8,30.04,South,179,0.0,0.0,98,0.00,,,0.00,0.0,meteohub,2013-06-20 05:13:00,
2013-06-20 01:18:00,75.4,74.5,30.04,SE,141,0.0,1.0,97,0.00,,,0.00,0.0,meteohub,2013-06-20 05:18:00,
2013-06-20 01:23:00,75.4,74.5,30.04,SE,141,0.0,5.0,97,0.00,,,0.00,0.0,meteohub,2013-06-20 05:23:00,
2013-06-20 01:28:00,75.6,74.7,30.04,SE,141,0.0,5.0,97,0.00,,,0.00,0.0,meteohub,2013-06-20 05:28:00,
2013-06-20 01:33:00,75.6,74.3,30.04,SSE,160,0.0,8.0,96,0.00,,,0.00,0.0,meteohub,2013-06-20 05:33:00,
2013-06-20 01:39:00,75.7,74.5,30.04,SSE,155,0.0,8.0,96,0.00,,,0.00,0.0,meteohub,2013-06-20 05:39:00,
2013-06-20 01:44:00,75.9,74.7,30.04,SSE,154,0.0,8.0,96,0.00,,,0.00,0.0,meteohub,2013-06-20 05:44:00,
2013-06-20 01:49:00,75.9,74.3,30.04,SSE,155,0.0,0.0,95,0.00,,,0.00,0.0,meteohub,2013-06-20 05:49:00,
2013-06-20 01:54:00,75.9,74.3,30.04,SSE,155,0.0,0.0,95,0.00,,,0.00,0.0,meteohub,2013-06-20 05:54:00,
2013-06-20 01:59:00,75.9,74.3,30.04,SSE,150,0.0,0.0,95,0.00,,,0.00,0.0,meteohub,2013-06-20 05:59:00,
2013-06-20 02:04:00,75.9,74.3,30.04,SSE,155,0.0,0.0,95,0.00,,,0.00,0.0,meteohub,2013-06-20 06:04:00,
2013-06-20 02:09:00,75.7,74.1,30.04,SSE,155,0.0,0.0,95,0.00,,,0.00,0.0,meteohub,2013-06-20 06:09:00,
2013-06-20 02:14:00,75.7,73.9,30.04,SSE,160,0.0,1.0,94,0.00,,,0.00,0.0,meteohub,2013-06-20 06:14:00,
2013-06-20 02:19:00,75.7,73.9,30.04,SSE,160,0.0,1.0,94,0.00,,,0.00,0.0,meteohub,2013-06-20 06:19:00,
2013-06-20 02:24:00,75.7,73.9,30.04,SSE,161,0.0,1.0,94,0.00,,,0.00,0.0,meteohub,2013-06-20 06:24:00,
2013-06-20 02:29:00,75.9,74.1,30.04,SSE,160,0.0,0.0,94,0.00,,,0.00,0.0,meteohub,2013-06-20 06:29:00,
2013-06-20 02:34:00,75.7,73.9,30.04,SSE,160,0.0,0.0,94,0.00,,,0.00,0.0,meteohub,2013-06-20 06:34:00,
2013-06-20 02:39:00,75.7,73.9,30.04,SSE,160,0.0,0.0,94,0.00,,,0.00,0.0,meteohub,2013-06-20 06:39:00,
2013-06-20 02:44:00,75.7,73.9,30.04,SSE,160,0.0,0.0,94,0.00,,,0.00,0.0,meteohub,2013-06-20 06:44:00,
2013-06-20 02:49:00,75.9,74.1,30.04,SSE,158,0.0,0.0,94,0.00,,,0.00,0.0,meteohub,2013-06-20 06:49:00,
2013-06-20 02:54:00,76.1,74.3,30.04,SSE,160,0.0,0.0,94,0.00,,,0.00,0.0,meteohub,2013-06-20 06:54:00,
2013-06-20 02:59:00,75.9,74.1,30.03,SSE,160,0.0,0.0,94,0.00,,,0.00,0.0,meteohub,2013-06-20 06:59:00,
2013-06-20 03:04:00,75.7,74.1,30.03,SSE,160,0.0,0.0,95,0.00,,,0.00,0.0,meteohub,2013-06-20 07:04:00,
2013-06-20 03:09:00,75.7,74.1,30.03,SSE,160,0.0,0.0,95,0.00,,,0.00,0.0,meteohub,2013-06-20 07:09:00,
2013-06-20 03:14:00,75.7,74.1,30.03,SSE,160,0.0,0.0,95,0.00,,,0.00,0.0,meteohub,2013-06-20 07:14:00,
2013-06-20 03:19:00,75.7,74.1,30.03,SSE,160,0.0,0.0,95,0.00,,,0.00,0.0,meteohub,2013-06-20 07:19:00,
2013-06-20 03:24:00,75.6,73.9,30.03,SSE,158,0.0,0.0,95,0.00,,,0.00,0.0,meteohub,2013-06-20 07:24:00,
2013-06-20 03:29:00,75.7,74.1,30.02,SSE,160,0.0,0.0,95,0.00,,,0.00,0.0,meteohub,2013-06-20 07:29:00,
2013-06-20 03:34:00,75.7,74.1,30.02,SSE,160,0.0,0.0,95,0.00,,,0.00,0.0,meteohub,2013-06-20 07:34:00,
2013-06-20 03:39:00,75.9,74.3,30.02,SSE,165,0.0,0.0,95,0.00,,,0.00,0.0,meteohub,2013-06-20 07:39:00,
2013-06-20 03:44:00,75.9,74.3,30.03,SSE,165,0.0,1.0,95,0.00,,,0.00,0.0,meteohub,2013-06-20 07:44:00,
2013-06-20 03:49:00,76.1,74.5,30.03,SSE,165,0.0,1.0,95,0.00,,,0.00,0.0,meteohub,2013-06-20 07:49:00,
2013-06-20 03:54:00,75.9,74.3,30.03,SSE,165,0.0,1.0,95,0.00,,,0.00,0.0,meteohub,2013-06-20 07:54:00,
2013-06-20 03:59:00,76.1,74.5,30.02,SSE,165,0.0,0.0,95,0.00,,,0.00,0.0,meteohub,2013-06-20 07:59:00,
2013-06-20 04:04:00,75.9,74.3,30.02,SSE,165,0.0,0.0,95,0.00,,,0.00,0.0,meteohub,2013-06-20 08:04:00,
2013-06-20 04:09:00,75.9,74.7,30.02,SSE,164,0.0,0.0,96,0.00,,,0.00,0.0,meteohub,2013-06-20 08:09:00,
2013-06-20 04:14:00,75.7,74.5,30.03,SSE,165,0.0,0.0,96,0.00,,,0.00,0.0,meteohub,2013-06-20 08:14:00,
2013-06-20 04:19:00,75.7,74.5,30.03,SSE,165,0.0,0.0,96,0.00,,,0.00,0.0,meteohub,2013-06-20 08:19:00,
2013-06-20 04:24:00,75.7,74.5,30.03,SSE,165,0.0,0.0,96,0.00,,,0.00,0.0,meteohub,2013-06-20 08:24:00,
2013-06-20 04:29:00,75.7,74.8,30.03,SSE,165,0.0,0.0,97,0.00,,,0.00,0.0,meteohub,2013-06-20 08:29:00,
2013-06-20 04:34:00,75.7,74.8,30.03,SSE,165,0.0,0.0,97,0.00,,,0.00,0.0,meteohub,2013-06-20 08:34:00,
2013-06-20 04:40:00,75.7,74.8,30.03,SSE,165,0.0,0.0,97,0.00,,,0.00,0.0,meteohub,2013-06-20 08:40:00,
2013-06-20 04:45:00,75.7,75.2,30.02,SSE,165,0.0,0.0,98,0.00,,,0.00,0.0,meteohub,2013-06-20 08:45:00,
2013-06-20 04:50:00,75.7,75.2,30.02,SSE,165,0.0,0.0,98,0.00,,,0.00,0.0,meteohub,2013-06-20 08:50:00,
2013-06-20 04:55:00,75.7,75.2,30.02,SSE,165,0.0,0.0,98,0.00,,,0.00,0.0,meteohub,2013-06-20 08:55:00,
2013-06-20 05:00:00,75.7,74.8,30.02,SSE,165,0.0,0.0,97,0.00,,,0.00,0.0,meteohub,2013-06-20 09:00:00,
2013-06-20 05:05:00,75.7,74.8,30.02,SSE,165,0.0,0.0,97,0.00,,,0.00,0.0,meteohub,2013-06-20 09:05:00,
2013-06-20 05:10:00,75.9,75.0,30.02,SSE,165,0.0,0.0,97,0.00,,,0.00,0.0,meteohub,2013-06-20 09:10:00,
2013-06-20 05:15:00,75.9,75.0,30.02,SSE,167,0.0,0.0,97,0.00,,,0.00,0.0,meteohub,2013-06-20 09:15:00,
2013-06-20 05:20:00,75.9,75.0,30.02,SSE,165,0.0,0.0,97,0.00,,,0.00,0.0,meteohub,2013-06-20 09:20:00,
2013-06-20 05:25:00,75.9,75.4,30.02,SSE,165,0.0,0.0,98,0.00,,,0.00,0.0,meteohub,2013-06-20 09:25:00,
2013-06-20 05:30:00,75.7,75.2,30.02,SSE,167,0.0,0.0,98,0.00,,,0.00,0.0,meteohub,2013-06-20 09:30:00,
2013-06-20 05:35:00,75.7,75.2,30.02,SSE,167,0.0,0.0,98,0.00,,,0.00,0.0,meteohub,2013-06-20 09:35:00,
2013-06-20 05:40:00,75.7,75.2,30.02,SSE,165,0.0,0.0,98,0.00,,,0.00,0.0,meteohub,2013-06-20 09:40:00,
2013-06-20 05:45:00,75.7,75.2,30.03,SSE,165,0.0,0.0,98,0.00,,,0.00,0.0,meteohub,2013-06-20 09:45:00,
2013-06-20 05:50:00,75.7,75.2,30.03,SSE,164,0.0,0.0,98,0.00,,,0.00,0.0,meteohub,2013-06-20 09:50:00,
2013-06-20 05:55:00,75.9,75.4,30.03,SSE,165,0.0,0.0,98,0.00,,,0.00,0.0,meteohub,2013-06-20 09:55:00,
2013-06-20 06:00:00,75.9,75.4,30.04,SSE,165,0.0,0.0,98,0.00,,,0.00,0.0,meteohub,2013-06-20 10:00:00,
2013-06-20 06:05:00,75.9,75.4,30.04,SSE,165,0.0,0.0,98,0.00,,,0.00,5.0,meteohub,2013-06-20 10:05:00,
2013-06-20 06:10:00,75.9,75.4,30.04,SSE,165,0.0,0.0,98,0.00,,,0.00,9.0,meteohub,2013-06-20 10:10:00,
2013-06-20 06:15:00,76.1,75.6,30.04,SSE,167,0.0,0.0,98,0.00,,,0.00,11.0,meteohub,2013-06-20 10:15:00,
2013-06-20 06:20:00,76.1,75.6,30.04,SSE,165,0.0,0.0,98,0.00,,,0.00,14.0,meteohub,2013-06-20 10:20:00,
2013-06-20 06:25:00,76.1,75.7,30.04,SSE,164,0.0,0.0,99,0.00,,,0.00,19.0,meteohub,2013-06-20 10:25:00,
2013-06-20 06:30:00,76.3,75.9,30.05,SSE,165,0.0,0.0,99,0.00,,,0.00,26.0,meteohub,2013-06-20 10:30:00,
2013-06-20 06:35:00,76.5,76.1,30.05,SSE,165,0.0,0.0,99,0.00,,,0.00,33.0,meteohub,2013-06-20 10:35:00,
2013-06-20 06:41:00,76.6,76.3,30.05,SSE,165,0.0,0.0,99,0.00,,,0.00,44.0,meteohub,2013-06-20 10:41:00,
2013-06-20 06:46:00,76.6,76.3,30.05,SSE,165,0.0,0.0,99,0.00,,,0.00,69.0,meteohub,2013-06-20 10:46:00,
2013-06-20 06:51:00,76.8,76.3,30.05,SSE,165,0.0,0.0,98,0.00,,,0.00,88.0,meteohub,2013-06-20 10:51:00,
2013-06-20 06:56:00,77.2,76.6,30.05,SSE,165,0.0,0.0,98,0.00,,,0.00,84.0,meteohub,2013-06-20 10:56:00,
2013-06-20 07:01:00,77.2,76.6,30.05,SSE,165,0.0,0.0,98,0.00,,,0.00,118.0,meteohub,2013-06-20 11:01:00,
2013-06-20 07:06:00,77.5,77.0,30.05,SSE,165,0.0,0.0,98,0.00,,,0.00,135.0,meteohub,2013-06-20 11:06:00,
2013-06-20 07:11:00,77.9,77.0,30.05,SSE,164,0.0,0.0,97,0.00,,,0.00,162.0,meteohub,2013-06-20 11:11:00,
2013-06-20 07:16:00,78.4,77.5,30.05,SSE,165,0.0,0.0,97,0.00,,,0.00,296.0,meteohub,2013-06-20 11:16:00,
2013-06-20 07:21:00,79.2,77.9,30.05,SSE,164,0.0,0.0,96,0.00,,,0.00,303.0,meteohub,2013-06-20 11:21:00,
2013-06-20 07:26:00,79.9,78.1,30.05,SSE,165,0.0,0.0,94,0.00,,,0.00,285.0,meteohub,2013-06-20 11:26:00,
2013-06-20 07:31:00,80.4,77.9,30.05,East,90,0.0,0.0,92,0.00,,,0.00,296.0,meteohub,2013-06-20 11:31:00,
2013-06-20 07:36:00,81.0,78.4,30.05,East,90,0.0,1.0,92,0.00,,,0.00,245.0,meteohub,2013-06-20 11:36:00,
2013-06-20 07:41:00,81.1,78.6,30.05,East,90,0.0,6.0,92,0.00,,,0.00,223.0,meteohub,2013-06-20 11:41:00,
2013-06-20 07:46:00,81.1,78.6,30.06,ESE,119,4.0,6.0,92,0.00,,,0.00,225.0,meteohub,2013-06-20 11:46:00,
2013-06-20 07:51:00,81.1,78.6,30.06,East,90,0.0,6.0,92,0.00,,,0.00,192.0,meteohub,2013-06-20 11:51:00,
2013-06-20 07:57:00,81.1,78.6,30.06,East,80,0.0,6.0,92,0.00,,,0.00,190.0,meteohub,2013-06-20 11:57:00,
2013-06-20 08:02:00,81.1,79.0,30.06,ESE,104,0.0,11.0,93,0.00,,,0.00,181.0,meteohub,2013-06-20 12:02:00,
2013-06-20 08:07:00,81.1,79.0,30.06,ESE,107,0.0,11.0,93,0.00,,,0.00,181.0,meteohub,2013-06-20 12:07:00,
2013-06-20 08:12:00,81.3,79.2,30.06,SE,124,5.0,11.0,93,0.00,,,0.00,139.0,meteohub,2013-06-20 12:12:00,
2013-06-20 08:17:00,81.7,79.5,30.06,ESE,103,0.0,7.0,93,0.00,,,0.00,151.0,meteohub,2013-06-20 12:17:00,
2013-06-20 08:22:00,81.7,79.5,30.06,ENE,76,9.0,9.0,93,0.00,,,0.00,158.0,meteohub,2013-06-20 12:22:00,
2013-06-20 08:27:00,81.9,79.7,30.06,East,82,3.0,12.0,93,0.00,,,0.00,199.0,meteohub,2013-06-20 12:27:00,
2013-06-20 08:32:00,82.0,79.9,30.07,ESE,106,0.0,12.0,93,0.00,,,0.00,211.0,meteohub,2013-06-20 12:32:00,
2013-06-20 08:37:00,81.9,79.3,30.07,East,96,5.0,12.0,92,0.00,,,0.00,172.0,meteohub,2013-06-20 12:37:00,
2013-06-20 08:42:00,82.0,79.5,30.07,ESE,104,0.0,12.0,92,0.00,,,0.00,197.0,meteohub,2013-06-20 12:42:00,
2013-06-20 08:47:00,82.0,79.2,30.07,ENE,71,13.0,13.0,91,0.00,,,0.00,202.0,meteohub,2013-06-20 12:47:00,
2013-06-20 08:52:00,82.2,79.3,30.07,SSE,160,8.0,14.0,91,0.00,,,0.00,185.0,meteohub,2013-06-20 12:52:00,
2013-06-20 08:57:00,82.2,79.3,30.07,East,86,10.0,14.0,91,0.00,,,0.00,211.0,meteohub,2013-06-20 12:57:00,
2013-06-20 09:02:00,82.4,79.5,30.07,ESE,117,8.0,14.0,91,0.00,,,0.00,157.0,meteohub,2013-06-20 13:02:00,
2013-06-20 09:07:00,82.4,79.5,30.07,ENE,71,9.0,13.0,91,0.00,,,0.00,171.0,meteohub,2013-06-20 13:07:00,
2013-06-20 09:12:00,82.4,79.5,30.07,ESE,106,5.0,13.0,91,0.00,,,0.00,396.0,meteohub,2013-06-20 13:12:00,
2013-06-20 09:17:00,82.8,79.5,30.07,SE,128,8.0,12.0,90,0.00,,,0.00,435.0,meteohub,2013-06-20 13:17:00,
2013-06-20 09:22:00,83.5,79.9,30.07,East,89,6.0,13.0,89,0.00,,,0.00,392.0,meteohub,2013-06-20 13:22:00,
2013-06-20 09:27:00,83.8,79.9,30.07,SE,126,0.0,13.0,88,0.00,,,0.00,422.0,meteohub,2013-06-20 13:27:00,
2013-06-20 09:33:00,84.0,79.3,30.07,ENE,69,0.0,17.0,86,0.00,,,0.00,428.0,meteohub,2013-06-20 13:33:00,
2013-06-20 09:38:00,84.0,79.0,30.07,East,99,0.0,17.0,85,0.00,,,0.00,496.0,meteohub,2013-06-20 13:38:00,
2013-06-20 09:43:00,84.6,79.2,30.08,East,100,12.0,17.0,84,0.00,,,0.00,498.0,meteohub,2013-06-20 13:43:00,
2013-06-20 09:48:00,84.6,79.2,30.08,East,92,7.0,17.0,84,0.00,,,0.00,436.0,meteohub,2013-06-20 13:48:00,
2013-06-20 09:53:00,84.9,79.2,30.08,East,83,10.0,17.0,83,0.00,,,0.00,649.0,meteohub,2013-06-20 13:53:00,
2013-06-20 09:58:00,85.3,79.2,30.08,East,99,10.0,17.0,82,0.00,,,0.00,927.0,meteohub,2013-06-20 13:58:00,
2013-06-20 10:03:00,85.3,78.8,30.08,East,89,5.0,17.0,81,0.00,,,0.00,588.0,meteohub,2013-06-20 14:03:00,
2013-06-20 10:08:00,85.5,79.0,30.08,ENE,76,6.0,19.0,81,0.00,,,0.00,581.0,meteohub,2013-06-20 14:08:00,
2013-06-20 10:13:00,85.6,79.2,30.07,East,79,14.0,19.0,81,0.00,,,0.00,535.0,meteohub,2013-06-20 14:13:00,
2013-06-20 10:18:00,85.8,79.3,30.07,ESE,112,0.0,19.0,81,0.00,,,0.00,561.0,meteohub,2013-06-20 14:18:00,
2013-06-20 10:23:00,86.2,79.7,30.07,ESE,113,10.0,19.0,81,0.00,,,0.00,591.0,meteohub,2013-06-20 14:23:00,
2013-06-20 10:28:00,86.5,80.1,30.07,ESE,121,0.0,19.0,81,0.00,,,0.00,632.0,meteohub,2013-06-20 14:28:00,
2013-06-20 10:33:00,87.3,79.9,30.07,ENE,72,19.0,19.0,79,0.00,,,0.00,1160.0,meteohub,2013-06-20 14:33:00,
2013-06-20 10:38:00,87.3,79.9,30.07,East,93,7.0,22.0,79,0.00,,,0.00,839.0,meteohub,2013-06-20 14:38:00,
2013-06-20 10:43:00,87.1,79.7,30.08,East,99,5.0,22.0,79,0.00,,,0.00,839.0,meteohub,2013-06-20 14:43:00,
2013-06-20 10:48:00,86.7,79.9,30.08,East,100,13.0,22.0,80,0.00,,,0.00,447.0,meteohub,2013-06-20 14:48:00,
2013-06-20 10:53:00,86.4,79.0,30.08,NE,51,16.0,20.0,79,0.00,,,0.00,563.0,meteohub,2013-06-20 14:53:00,
2013-06-20 10:58:00,86.2,79.0,30.08,SE,128,11.0,20.0,79,0.00,,,0.00,530.0,meteohub,2013-06-20 14:58:00,
2013-06-20 11:03:00,86.2,79.3,30.08,SE,130,12.0,19.0,80,0.00,,,0.00,523.0,meteohub,2013-06-20 15:03:00,
2013-06-20 11:08:00,85.8,79.0,30.08,East,93,7.0,19.0,80,0.00,,,0.00,440.0,meteohub,2013-06-20 15:08:00,
2013-06-20 11:13:00,85.8,79.0,30.08,ESE,110,11.0,20.0,80,0.00,,,0.00,449.0,meteohub,2013-06-20 15:13:00,
2013-06-20 11:18:00,85.6,79.2,30.08,East,99,8.0,20.0,81,0.00,,,0.00,493.0,meteohub,2013-06-20 15:18:00,
2013-06-20 11:23:00,85.6,79.2,30.08,ESE,114,12.0,20.0,81,0.00,,,0.00,489.0,meteohub,2013-06-20 15:23:00,
2013-06-20 11:28:00,85.8,79.3,30.08,East,86,7.0,19.0,81,0.00,,,0.00,540.0,meteohub,2013-06-20 15:28:00,
2013-06-20 11:33:00,86.2,79.7,30.08,ENE,76,15.0,19.0,81,0.00,,,0.00,753.0,meteohub,2013-06-20 15:33:00,
2013-06-20 11:38:00,86.2,79.0,30.08,East,89,9.0,18.0,79,0.00,,,0.00,561.0,meteohub,2013-06-20 15:38:00,
2013-06-20 11:44:00,86.2,79.3,30.08,ENE,65,8.0,19.0,80,0.00,,,0.00,579.0,meteohub,2013-06-20 15:44:00,
2013-06-20 11:48:00,86.5,79.2,30.08,ENE,75,3.0,19.0,79,0.00,,,0.00,1089.0,meteohub,2013-06-20 15:48:00,
2013-06-20 11:53:00,86.5,79.2,30.08,East,83,12.0,20.0,79,0.00,,,0.00,498.0,meteohub,2013-06-20 15:53:00,
2013-06-20 11:59:00,86.4,79.0,30.07,East,99,17.0,20.0,79,0.00,,,0.00,545.0,meteohub,2013-06-20 15:59:00,
2013-06-20 12:03:00,86.5,79.2,30.07,ENE,69,11.0,21.0,79,0.00,,,0.00,623.0,meteohub,2013-06-20 16:03:00,
2013-06-20 12:08:00,86.4,78.6,30.07,ENE,71,8.0,21.0,78,0.00,,,0.00,572.0,meteohub,2013-06-20 16:08:00,
2013-06-20 12:14:00,86.2,79.0,30.08,East,96,10.0,21.0,79,0.00,,,0.00,505.0,meteohub,2013-06-20 16:14:00,
2013-06-20 12:19:00,86.2,79.3,30.08,East,86,10.0,21.0,80,0.00,,,0.00,509.0,meteohub,2013-06-20 16:19:00,
2013-06-20 12:24:00,86.2,79.3,30.08,ENE,72,18.0,21.0,80,0.00,,,0.00,572.0,meteohub,2013-06-20 16:24:00,
2013-06-20 12:29:00,86.4,79.0,30.07,ENE,71,9.0,21.0,79,0.00,,,0.00,688.0,meteohub,2013-06-20 16:29:00,
2013-06-20 12:34:00,86.5,78.8,30.07,ESE,103,5.0,20.0,78,0.00,,,0.00,560.0,meteohub,2013-06-20 16:34:00,
2013-06-20 12:39:00,87.3,79.2,30.07,ESE,102,17.0,20.0,77,0.00,,,0.00,303.0,meteohub,2013-06-20 16:39:00,
2013-06-20 12:44:00,87.1,79.3,30.07,East,90,3.0,18.0,78,0.00,,,0.00,545.0,meteohub,2013-06-20 16:44:00,
2013-06-20 12:49:00,86.5,78.4,30.07,ENE,72,10.0,18.0,77,0.00,,,0.00,378.0,meteohub,2013-06-20 16:49:00,
2013-06-20 12:54:00,86.4,79.0,30.07,ESE,113,9.0,20.0,79,0.00,,,0.00,370.0,meteohub,2013-06-20 16:54:00,
2013-06-20 12:59:00,86.5,79.2,30.07,East,92,17.0,20.0,79,0.00,,,0.00,560.0,meteohub,2013-06-20 16:59:00,
2013-06-20 13:04:00,86.7,79.9,30.07,SE,136,12.0,20.0,80,0.00,,,0.00,394.0,meteohub,2013-06-20 17:04:00,
2013-06-20 13:09:00,86.4,79.0,30.07,ENE,66,7.0,18.0,79,0.00,,,0.00,322.0,meteohub,2013-06-20 17:09:00,
2013-06-20 13:14:00,86.4,79.0,30.07,ENE,71,16.0,18.0,79,0.00,,,0.00,577.0,meteohub,2013-06-20 17:14:00,
2013-06-20 13:19:00,86.4,79.0,30.07,East,100,12.0,17.0,79,0.00,,,0.00,371.0,meteohub,2013-06-20 17:19:00,
2013-06-20 13:24:00,85.6,78.4,30.07,ENE,73,15.0,18.0,79,0.00,,,0.00,347.0,meteohub,2013-06-20 17:24:00,
2013-06-20 13:29:00,85.6,78.8,30.07,ENE,62,11.0,19.0,80,0.00,,,0.00,445.0,meteohub,2013-06-20 17:29:00,
2013-06-20 13:35:00,85.8,78.6,30.07,NE,54,11.0,19.0,79,0.00,,,0.00,413.0,meteohub,2013-06-20 17:35:00,
2013-06-20 13:40:00,85.6,78.8,30.07,East,99,14.0,19.0,80,0.00,,,0.00,405.0,meteohub,2013-06-20 17:40:00,
2013-06-20 13:45:00,85.5,79.0,30.07,NE,54,11.0,21.0,81,0.00,,,0.00,373.0,meteohub,2013-06-20 17:45:00,
2013-06-20 13:50:00,85.5,79.0,30.07,SE,124,11.0,22.0,81,0.00,,,0.00,718.0,meteohub,2013-06-20 17:50:00,
2013-06-20 13:55:00,85.6,79.2,30.07,SE,124,7.0,22.0,81,0.00,,,0.00,366.0,meteohub,2013-06-20 17:55:00,
2013-06-20 14:00:00,85.8,79.3,30.06,ESE,114,11.0,18.0,81,0.00,,,0.00,588.0,meteohub,2013-06-20 18:00:00,
2013-06-20 14:05:00,85.8,79.3,30.06,ESE,102,8.0,17.0,81,0.00,,,0.00,570.0,meteohub,2013-06-20 18:05:00,
2013-06-20 14:10:00,86.4,79.9,30.06,ESE,102,7.0,16.0,81,0.00,,,0.00,730.0,meteohub,2013-06-20 18:10:00,
2013-06-20 14:15:00,86.4,79.5,30.06,East,88,11.0,14.0,80,0.00,,,0.00,421.0,meteohub,2013-06-20 18:15:00,
2013-06-20 14:20:00,86.2,79.3,30.06,ESE,106,8.0,20.0,80,0.00,,,0.00,421.0,meteohub,2013-06-20 18:20:00,
2013-06-20 14:25:00,86.4,79.0,30.06,ESE,121,10.0,20.0,79,0.00,,,0.00,688.0,meteohub,2013-06-20 18:25:00,
2013-06-20 14:30:00,86.4,79.0,30.06,ESE,102,12.0,21.0,79,0.00,,,0.00,292.0,meteohub,2013-06-20 18:30:00,
2013-06-20 14:35:00,86.2,79.3,30.06,ESE,103,11.0,21.0,80,0.00,,,0.00,259.0,meteohub,2013-06-20 18:35:00,
2013-06-20 14:40:00,85.6,80.2,30.06,ENE,62,10.0,21.0,84,0.00,,,0.00,171.0,meteohub,2013-06-20 18:40:00,
2013-06-20 14:45:00,84.9,79.9,30.05,NE,48,7.0,17.0,85,0.00,,,0.02,253.0,meteohub,2013-06-20 18:45:00,
2013-06-20 14:50:00,84.4,79.7,30.05,East,99,12.0,104.0,86,0.02,,,0.02,382.0,meteohub,2013-06-20 18:50:00,
2013-06-20 14:55:00,83.8,79.5,30.05,East,89,3.0,17.0,87,0.03,,,0.03,257.0,meteohub,2013-06-20 18:55:00,
2013-06-20 15:00:00,84.0,80.4,30.04,SE,124,3.0,17.0,89,0.03,,,0.03,209.0,meteohub,2013-06-20 19:00:00,
2013-06-20 15:05:00,83.7,80.1,30.04,ESE,120,10.0,12.0,89,0.03,,,0.03,239.0,meteohub,2013-06-20 19:05:00,
2013-06-20 15:10:00,83.5,79.9,30.04,ESE,120,5.0,13.0,89,0.03,,,0.03,239.0,meteohub,2013-06-20 19:10:00,
2013-06-20 15:16:00,84.0,80.4,30.04,SE,127,6.0,13.0,89,0.03,,,0.03,477.0,meteohub,2013-06-20 19:16:00,
2013-06-20 15:21:00,84.0,80.1,30.04,NE,49,2.0,19.0,88,0.03,,,0.03,493.0,meteohub,2013-06-20 19:21:00,
2013-06-20 15:26:00,84.6,80.6,30.04,ESE,113,5.0,19.0,88,0.03,,,0.03,341.0,meteohub,2013-06-20 19:26:00,
2013-06-20 15:31:00,84.6,79.5,30.04,East,96,7.0,19.0,85,0.03,,,0.03,442.0,meteohub,2013-06-20 19:31:00,
2013-06-20 15:36:00,85.1,79.3,30.04,ENE,78,15.0,16.0,83,0.03,,,0.03,670.0,meteohub,2013-06-20 19:36:00,
2013-06-20 15:41:00,85.6,79.5,30.04,East,99,8.0,16.0,82,0.02,,,0.03,725.0,meteohub,2013-06-20 19:41:00,
2013-06-20 15:46:00,85.8,79.3,30.03,SE,131,3.0,16.0,81,0.01,,,0.03,676.0,meteohub,2013-06-20 19:46:00,
2013-06-20 15:51:00,86.2,79.0,30.03,East,100,13.0,18.0,79,0.01,,,0.03,642.0,meteohub,2013-06-20 19:51:00,
2013-06-20 15:56:00,86.4,78.6,30.03,East,88,4.0,18.0,78,0.00,,,0.03,609.0,meteohub,2013-06-20 19:56:00,
2013-06-20 16:01:00,86.5,78.4,30.02,SE,126,8.0,18.0,77,0.00,,,0.03,586.0,meteohub,2013-06-20 20:01:00,
2013-06-20 16:06:00,86.5,78.8,30.02,ESE,112,11.0,18.0,78,0.00,,,0.03,442.0,meteohub,2013-06-20 20:06:00,
2013-06-20 16:11:00,86.5,79.2,30.02,ESE,109,7.0,17.0,79,0.00,,,0.03,408.0,meteohub,2013-06-20 20:11:00,
2013-06-20 16:16:00,86.5,79.7,30.03,NE,47,0.0,17.0,80,0.00,,,0.03,560.0,meteohub,2013-06-20 20:16:00,
2013-06-20 16:21:00,86.7,79.3,30.03,East,90,12.0,16.0,79,0.00,,,0.03,542.0,meteohub,2013-06-20 20:21:00,
2013-06-20 16:26:00,86.4,79.0,30.03,East,99,10.0,17.0,79,0.00,,,0.03,269.0,meteohub,2013-06-20 20:26:00,
2013-06-20 16:31:00,85.8,78.6,30.02,ESE,114,7.0,17.0,79,0.00,,,0.03,306.0,meteohub,2013-06-20 20:31:00,
2013-06-20 16:36:00,85.6,78.4,30.02,East,99,6.0,17.0,79,0.00,,,0.03,308.0,meteohub,2013-06-20 20:36:00,
2013-06-20 16:41:00,86.2,78.4,30.02,East,86,8.0,17.0,78,0.00,,,0.03,287.0,meteohub,2013-06-20 20:41:00,
2013-06-20 16:46:00,85.8,78.6,30.03,ESE,109,4.0,17.0,79,0.00,,,0.03,408.0,meteohub,2013-06-20 20:46:00,
2013-06-20 16:51:00,85.6,77.9,30.03,East,99,12.0,14.0,78,0.00,,,0.03,333.0,meteohub,2013-06-20 20:51:00,
2013-06-20 16:57:00,85.8,78.6,30.03,East,93,2.0,14.0,79,0.00,,,0.03,435.0,meteohub,2013-06-20 20:57:00,
2013-06-20 17:02:00,85.8,78.1,30.03,ESE,117,7.0,14.0,78,0.00,,,0.03,435.0,meteohub,2013-06-20 21:02:00,
2013-06-20 17:07:00,85.8,78.6,30.03,SE,134,5.0,14.0,79,0.00,,,0.03,373.0,meteohub,2013-06-20 21:07:00,
2013-06-20 17:12:00,85.5,78.6,30.03,ENE,73,8.0,13.0,80,0.00,,,0.03,318.0,meteohub,2013-06-20 21:12:00,
2013-06-20 17:17:00,85.3,78.4,30.03,ENE,73,5.0,13.0,80,0.00,,,0.03,333.0,meteohub,2013-06-20 21:17:00,
2013-06-20 17:22:00,85.1,78.3,30.03,East,92,0.0,17.0,80,0.00,,,0.03,194.0,meteohub,2013-06-20 21:22:00,
2013-06-20 17:27:00,84.7,77.9,30.03,East,96,6.0,17.0,80,0.00,,,0.03,167.0,meteohub,2013-06-20 21:27:00,
2013-06-20 17:32:00,84.4,77.9,30.03,East,83,7.0,17.0,81,0.00,,,0.03,178.0,meteohub,2013-06-20 21:32:00,
2013-06-20 17:37:00,84.4,78.3,30.03,ESE,104,11.0,14.0,82,0.00,,,0.03,130.0,meteohub,2013-06-20 21:37:00,
2013-06-20 17:42:00,84.0,77.9,30.03,East,83,3.0,14.0,82,0.00,,,0.03,132.0,meteohub,2013-06-20 21:42:00,
2013-06-20 17:47:00,84.0,78.3,30.04,East,83,5.0,14.0,83,0.00,,,0.03,150.0,meteohub,2013-06-20 21:47:00,
2013-06-20 17:52:00,84.0,78.3,30.04,ENE,75,7.0,14.0,83,0.00,,,0.03,172.0,meteohub,2013-06-20 21:52:00,
2013-06-20 17:57:00,84.0,78.3,30.04,East,89,6.0,12.0,83,0.00,,,0.03,155.0,meteohub,2013-06-20 21:57:00,
2013-06-20 18:02:00,84.0,78.6,30.04,SE,130,2.0,12.0,84,0.00,,,0.03,144.0,meteohub,2013-06-20 22:02:00,
2013-06-20 18:07:00,84.0,78.3,30.04,East,85,6.0,12.0,83,0.00,,,0.03,132.0,meteohub,2013-06-20 22:07:00,
2013-06-20 18:12:00,84.0,78.6,30.04,ESE,116,6.0,12.0,84,0.00,,,0.03,114.0,meteohub,2013-06-20 22:12:00,
2013-06-20 18:17:00,83.8,78.4,30.04,ENE,76,5.0,12.0,84,0.00,,,0.03,97.0,meteohub,2013-06-20 22:17:00,
2013-06-20 18:22:00,83.7,78.3,30.04,ENE,66,5.0,14.0,84,0.00,,,0.03,74.0,meteohub,2013-06-20 22:22:00,
2013-06-20 18:27:00,83.5,78.1,30.04,ESE,104,11.0,14.0,84,0.00,,,0.03,60.0,meteohub,2013-06-20 22:27:00,
2013-06-20 18:33:00,83.1,77.7,30.04,East,96,4.0,14.0,84,0.00,,,0.03,48.0,meteohub,2013-06-20 22:33:00,
2013-06-20 18:38:00,83.1,78.1,30.04,ENE,69,7.0,13.0,85,0.00,,,0.03,35.0,meteohub,2013-06-20 22:38:00,
2013-06-20 18:43:00,82.9,77.9,30.05,NE,56,5.0,13.0,85,0.00,,,0.03,30.0,meteohub,2013-06-20 22:43:00,
2013-06-20 18:48:00,82.8,77.7,30.05,East,80,9.0,12.0,85,0.00,,,0.03,16.0,meteohub,2013-06-20 22:48:00,
2013-06-20 18:53:00,82.6,77.9,30.05,ENE,65,7.0,14.0,86,0.00,,,0.03,7.0,meteohub,2013-06-20 22:53:00,
2013-06-20 18:58:00,82.4,77.7,30.05,East,90,6.0,14.0,86,0.00,,,0.03,0.0,meteohub,2013-06-20 22:58:00,
2013-06-20 19:03:00,82.4,77.7,30.05,ENE,69,7.0,14.0,86,0.00,,,0.03,0.0,meteohub,2013-06-20 23:03:00,
2013-06-20 19:08:00,82.2,77.9,30.05,ESE,117,6.0,14.0,87,0.00,,,0.03,0.0,meteohub,2013-06-20 23:08:00,
2013-06-20 19:13:00,82.2,77.9,30.05,ENE,76,7.0,14.0,87,0.00,,,0.03,0.0,meteohub,2013-06-20 23:13:00,
2013-06-20 19:18:00,82.0,78.1,30.05,East,90,10.0,14.0,88,0.00,,,0.03,0.0,meteohub,2013-06-20 23:18:00,
2013-06-20 19:23:00,81.9,77.9,30.05,ENE,72,5.0,13.0,88,0.00,,,0.03,0.0,meteohub,2013-06-20 23:23:00,
2013-06-20 19:28:00,81.7,77.7,30.05,ENE,76,6.0,13.0,88,0.00,,,0.03,0.0,meteohub,2013-06-20 23:28:00,
2013-06-20 19:33:00,81.7,77.7,30.05,ENE,59,0.0,16.0,88,0.00,,,0.03,0.0,meteohub,2013-06-20 23:33:00,
2013-06-20 19:38:00,81.7,77.7,30.05,NE,55,7.0,16.0,88,0.00,,,0.03,0.0,meteohub,2013-06-20 23:38:00,
2013-06-20 19:43:00,81.7,78.1,30.06,ESE,107,7.0,11.0,89,0.00,,,0.03,0.0,meteohub,2013-06-20 23:43:00,
2013-06-20 19:48:00,81.7,78.1,30.06,East,100,7.0,12.0,89,0.00,,,0.03,0.0,meteohub,2013-06-20 23:48:00,
2013-06-20 19:53:00,81.7,78.1,30.06,East,83,6.0,12.0,89,0.00,,,0.03,0.0,meteohub,2013-06-20 23:53:00,
2013-06-20 19:58:00,81.3,77.7,30.06,East,82,8.0,12.0,89,0.00,,,0.03,0.0,meteohub,2013-06-20 23:58:00,
2013-06-20 20:03:00,81.3,77.7,30.06,East,79,9.0,11.0,89,0.00,,,0.03,0.0,meteohub,2013-06-21 00:03:00,
2013-06-20 20:08:00,81.3,77.7,30.06,East,88,7.0,13.0,89,0.00,,,0.03,0.0,meteohub,2013-06-21 00:08:00,
2013-06-20 20:14:00,81.3,77.7,30.06,East,90,6.0,13.0,89,0.00,,,0.03,0.0,meteohub,2013-06-21 00:14:00,
2013-06-20 20:19:00,81.3,77.7,30.06,East,85,7.0,13.0,89,0.00,,,0.03,0.0,meteohub,2013-06-21 00:19:00,
2013-06-20 20:24:00,81.1,77.5,30.06,East,86,5.0,11.0,89,0.00,,,0.03,0.0,meteohub,2013-06-21 00:24:00,
2013-06-20 20:29:00,81.3,77.7,30.06,East,89,0.0,11.0,89,0.00,,,0.03,0.0,meteohub,2013-06-21 00:29:00,
2013-06-20 20:34:00,81.1,77.9,30.06,East,83,0.0,11.0,90,0.00,,,0.03,0.0,meteohub,2013-06-21 00:34:00,
2013-06-20 20:39:00,81.1,77.9,30.06,ENE,61,4.0,11.0,90,0.00,,,0.03,0.0,meteohub,2013-06-21 00:39:00,
2013-06-20 20:44:00,81.1,77.9,30.06,East,83,8.0,10.0,90,0.00,,,0.03,0.0,meteohub,2013-06-21 00:44:00,
2013-06-20 20:49:00,81.1,77.9,30.06,East,89,2.0,9.0,90,0.00,,,0.03,0.0,meteohub,2013-06-21 00:49:00,
2013-06-20 20:54:00,81.1,77.9,30.06,ENE,73,0.0,11.0,90,0.00,,,0.03,0.0,meteohub,2013-06-21 00:54:00,
2013-06-20 20:59:00,81.1,77.9,30.07,ESE,109,3.0,12.0,90,0.00,,,0.03,0.0,meteohub,2013-06-21 00:59:00,
2013-06-20 21:04:00,81.1,77.9,30.07,East,86,0.0,12.0,90,0.00,,,0.03,0.0,meteohub,2013-06-21 01:04:00,
2013-06-20 21:09:00,81.1,77.9,30.07,East,89,0.0,12.0,90,0.00,,,0.03,0.0,meteohub,2013-06-21 01:09:00,
2013-06-20 21:14:00,81.1,77.9,30.07,ENE,76,0.0,10.0,90,0.00,,,0.03,0.0,meteohub,2013-06-21 01:14:00,
2013-06-20 21:19:00,81.1,77.9,30.07,East,93,6.0,8.0,90,0.00,,,0.03,0.0,meteohub,2013-06-21 01:19:00,
2013-06-20 21:24:00,81.1,77.9,30.07,East,86,3.0,8.0,90,0.00,,,0.03,0.0,meteohub,2013-06-21 01:24:00,
2013-06-20 21:29:00,81.1,77.9,30.08,SE,136,2.0,9.0,90,0.00,,,0.03,0.0,meteohub,2013-06-21 01:29:00,
2013-06-20 21:34:00,81.1,77.9,30.08,East,95,0.0,9.0,90,0.00,,,0.03,0.0,meteohub,2013-06-21 01:34:00,
2013-06-20 21:39:00,81.1,78.3,30.08,ESE,114,0.0,8.0,91,0.00,,,0.03,0.0,meteohub,2013-06-21 01:39:00,
2013-06-20 21:44:00,81.0,78.1,30.08,East,92,0.0,7.0,91,0.00,,,0.03,0.0,meteohub,2013-06-21 01:44:00,
2013-06-20 21:49:00,81.0,78.1,30.08,ESE,110,0.0,7.0,91,0.00,,,0.03,0.0,meteohub,2013-06-21 01:49:00,
2013-06-20 21:54:00,81.0,78.1,30.08,East,93,0.0,7.0,91,0.00,,,0.03,0.0,meteohub,2013-06-21 01:54:00,
2013-06-20 21:59:00,81.0,78.1,30.08,ESE,110,0.0,6.0,91,0.00,,,0.03,0.0,meteohub,2013-06-21 01:59:00,
2013-06-20 22:04:00,81.0,78.1,30.08,ENE,73,0.0,10.0,91,0.00,,,0.03,0.0,meteohub,2013-06-21 02:04:00,
2013-06-20 22:09:00,80.8,77.9,30.08,East,92,0.0,10.0,91,0.00,,,0.03,0.0,meteohub,2013-06-21 02:09:00,
2013-06-20 22:14:00,80.8,77.9,30.08,East,99,0.0,10.0,91,0.00,,,0.03,0.0,meteohub,2013-06-21 02:14:00,
2013-06-20 22:19:00,80.8,78.3,30.08,ESE,103,0.0,10.0,92,0.00,,,0.03,0.0,meteohub,2013-06-21 02:19:00,
2013-06-20 22:24:00,80.4,77.9,30.08,ESE,107,0.0,10.0,92,0.00,,,0.03,0.0,meteohub,2013-06-21 02:24:00,
2013-06-20 22:29:00,80.4,77.9,30.08,ENE,62,0.0,5.0,92,0.00,,,0.03,0.0,meteohub,2013-06-21 02:29:00,
2013-06-20 22:34:00,80.4,77.9,30.08,East,86,0.0,5.0,92,0.00,,,0.03,0.0,meteohub,2013-06-21 02:34:00,
2013-06-20 22:39:00,80.4,77.9,30.08,ESE,103,0.0,5.0,92,0.00,,,0.03,0.0,meteohub,2013-06-21 02:39:00,
2013-06-20 22:44:00,80.2,77.7,30.09,ESE,119,0.0,5.0,92,0.00,,,0.03,0.0,meteohub,2013-06-21 02:44:00,
2013-06-20 22:49:00,80.2,77.7,30.09,ESE,119,0.0,5.0,92,0.00,,,0.03,0.0,meteohub,2013-06-21 02:49:00,
2013-06-20 22:54:00,80.2,77.7,30.09,ESE,123,0.0,1.0,92,0.00,,,0.03,0.0,meteohub,2013-06-21 02:54:00,
2013-06-20 22:59:00,80.2,77.7,30.09,ESE,114,0.0,1.0,92,0.00,,,0.03,0.0,meteohub,2013-06-21 02:59:00,
2013-06-20 23:05:00,80.1,77.5,30.09,SE,136,0.0,0.0,92,0.00,,,0.03,0.0,meteohub,2013-06-21 03:05:00,
2013-06-20 23:10:00,80.1,77.5,30.09,East,93,0.0,1.0,92,0.00,,,0.03,0.0,meteohub,2013-06-21 03:10:00,
2013-06-20 23:15:00,80.1,77.5,30.08,East,88,0.0,7.0,92,0.00,,,0.03,0.0,meteohub,2013-06-21 03:15:00,
2013-06-20 23:20:00,80.1,77.5,30.08,ESE,103,0.0,7.0,92,0.00,,,0.03,0.0,meteohub,2013-06-21 03:20:00,
2013-06-20 23:25:00,80.1,77.5,30.08,ESE,103,0.0,7.0,92,0.00,,,0.03,0.0,meteohub,2013-06-21 03:25:00,
2013-06-20 23:30:00,79.9,77.4,30.08,East,100,0.0,7.0,92,0.00,,,0.03,0.0,meteohub,2013-06-21 03:30:00,
2013-06-20 23:35:00,79.9,77.4,30.08,East,92,0.0,6.0,92,0.00,,,0.03,0.0,meteohub,2013-06-21 03:35:00,
2013-06-20 23:40:00,79.9,77.4,30.08,East,95,0.0,6.0,92,0.00,,,0.03,0.0,meteohub,2013-06-21 03:40:00,
2013-06-20 23:45:00,79.9,77.4,30.08,East,83,0.0,6.0,92,0.00,,,0.03,0.0,meteohub,2013-06-21 03:45:00,
2013-06-20 23:50:00,79.9,77.4,30.08,East,82,0.0,0.0,92,0.00,,,0.03,0.0,meteohub,2013-06-21 03:50:00,
2013-06-20 23:55:00,79.9,77.4,30.08,ENE,59,0.0,0.0,92,0.00,,,0.03,0.0,meteohub,2013-06-21 03:55:00,